62.5°F
Current conditions from King Hill
Updated every 5 minutes
 
  Thursday August 28, 2014

Station Historical Data
Daily Summary for March 1, 2011 Units:  Metric    English   Both
« Previous Day
Next Day »
Daily Weekly Monthly Yearly Custom
  High: Low: Average:
Temperature: -1.1 °C -9.6 °C -5.2 °C
Dew Point: -7.3 °C -15.6 °C -12.6 °C
Humidity: 74% 40% 57%
Wind Speed: 20.9km/h 1.6km/h 8.7km/h
Wind Gust: 41.8km/h - -
Wind- - West
Pressure: 1024.6 hPa 1011.4 hPa -
Precipitation: 0 mm    
Historical Graphs
 
 
Tabular Data for March 1, 2011
Time Temperature Dew Point Pressure Wind Wind Speed Wind Gust Humidity Daily Rainfall
00:04 -3.4 °C -7.3 °C 1011.4 hPa NNW 14.5 km/h 29 km/h 74% 0 mm
00:09 -3.5 °C -7.4 °C 1011.7 hPa NW 12.9 km/h 29 km/h 74% 0 mm
00:14 -3.6 °C -7.7 °C 1011.7 hPa NNW 11.3 km/h 29 km/h 73% 0 mm
00:19 -3.7 °C -7.6 °C 1011.7 hPa NW 11.3 km/h 27.4 km/h 74% 0 mm
00:24 -3.8 °C -7.9 °C 1012.1 hPa NNW 11.3 km/h 25.7 km/h 73% 0 mm
00:29 -3.9 °C -8 °C 1012.1 hPa NNW 14.5 km/h 30.6 km/h 73% 0 mm
00:34 -3.8 °C -8.3 °C 1012.1 hPa NNW 16.1 km/h 40.2 km/h 71% 0 mm
00:44 -3.9 °C -8.4 °C 1012.4 hPa NNW 14.5 km/h 37 km/h 71% 0 mm
00:49 -4 °C -8.5 °C 1012.4 hPa NW 19.3 km/h 38.6 km/h 71% 0 mm
00:54 -4.1 °C -8.3 °C 1012.4 hPa NNW 16.1 km/h 38.6 km/h 72% 0 mm
01:04 -4.2 °C -8.5 °C 1013.1 hPa NNW 14.5 km/h 29 km/h 72% 0 mm
01:09 -4.2 °C -8.3 °C 1013.1 hPa NW 6.4 km/h 30.6 km/h 73% 0 mm
01:14 -4.3 °C -8.6 °C 1013.1 hPa NNW 14.5 km/h 30.6 km/h 72% 0 mm
01:19 -4.3 °C -8.7 °C 1013.4 hPa NNW 16.1 km/h 30.6 km/h 71% 0 mm
01:24 -4.3 °C -9 °C 1013.4 hPa NNW 11.3 km/h 30.6 km/h 70% 0 mm
01:29 -4.4 °C -9.3 °C 1013.8 hPa NW 14.5 km/h 29 km/h 69% 0 mm
01:34 -4.5 °C -9.3 °C 1013.8 hPa NW 12.9 km/h 30.6 km/h 69% 0 mm
01:39 -4.5 °C -9.3 °C 1013.8 hPa NW 12.9 km/h 30.6 km/h 69% 0 mm
01:44 -4.6 °C -9.2 °C 1014.1 hPa NW 11.3 km/h 27.4 km/h 70% 0 mm
01:49 -4.7 °C -9.1 °C 1014.1 hPa NW 8 km/h 20.9 km/h 71% 0 mm
01:54 -4.7 °C -8.9 °C 1014.4 hPa NW 6.4 km/h 27.4 km/h 72% 0 mm
01:59 -4.8 °C -9.1 °C 1014.8 hPa NNW 19.3 km/h 30.6 km/h 72% 0 mm
02:04 -4.8 °C -9.3 °C 1014.8 hPa NNW 12.9 km/h 30.6 km/h 71% 0 mm
02:09 -4.9 °C -9.6 °C 1014.8 hPa NW 14.5 km/h 35.4 km/h 70% 0 mm
02:14 -5.1 °C -9.7 °C 1015.1 hPa NW 9.7 km/h 35.4 km/h 70% 0 mm
02:19 -5.2 °C -9.9 °C 1015.1 hPa NW 11.3 km/h 33.8 km/h 69% 0 mm
02:24 -5.3 °C -10.1 °C 1015.1 hPa NW 16.1 km/h 33.8 km/h 69% 0 mm
02:29 -5.3 °C -9.9 °C 1015.1 hPa NW 16.1 km/h 30.6 km/h 70% 0 mm
02:34 -5.4 °C -10.1 °C 1015.5 hPa NW 11.3 km/h 30.6 km/h 70% 0 mm
02:39 -5.6 °C -10.2 °C 1015.5 hPa NNW 12.9 km/h 29 km/h 70% 0 mm
02:44 -5.6 °C -10.1 °C 1015.5 hPa NNW 8 km/h 27.4 km/h 71% 0 mm
02:49 -5.7 °C -10.2 °C 1015.8 hPa NW 16.1 km/h 25.7 km/h 71% 0 mm
02:54 -5.8 °C -10.4 °C 1015.8 hPa NW 12.9 km/h 29 km/h 70% 0 mm
02:59 -6.1 °C -10.7 °C 1015.8 hPa NW 8 km/h 35.4 km/h 70% 0 mm
03:04 -6.2 °C -10.6 °C 1015.8 hPa NNW 8 km/h 35.4 km/h 71% 0 mm
03:09 -6.4 °C -10.9 °C 1016.1 hPa NNW 8 km/h 22.5 km/h 70% 0 mm
03:14 -6.4 °C -11 °C 1016.1 hPa NW 17.7 km/h 33.8 km/h 70% 0 mm
03:19 -6.6 °C -11.1 °C 1016.1 hPa NNW 12.9 km/h 33.8 km/h 70% 0 mm
03:24 -6.6 °C -11.2 °C 1016.5 hPa NNW 8 km/h 29 km/h 70% 0 mm
03:29 -6.7 °C -11.3 °C 1016.1 hPa NW 11.3 km/h 30.6 km/h 70% 0 mm
03:34 -6.8 °C -11.4 °C 1016.5 hPa NW 14.5 km/h 30.6 km/h 70% 0 mm
03:39 -6.8 °C -11.4 °C 1016.5 hPa NW 11.3 km/h 29 km/h 70% 0 mm
03:44 -6.9 °C -11.5 °C 1016.8 hPa NW 12.9 km/h 29 km/h 70% 0 mm
03:49 -7 °C -11.6 °C 1016.8 hPa NW 8 km/h 29 km/h 70% 0 mm
03:54 -7.1 °C -11.6 °C 1017.2 hPa NW 9.7 km/h 27.4 km/h 70% 0 mm
03:59 -7.1 °C -11.7 °C 1017.2 hPa NW 9.7 km/h 27.4 km/h 70% 0 mm
04:04 -7.2 °C -11.7 °C 1017.2 hPa NW 9.7 km/h 27.4 km/h 70% 0 mm
04:09 -7.2 °C -11.8 °C 1017.5 hPa NW 4.8 km/h 25.7 km/h 70% 0 mm
04:14 -7.3 °C -11.8 °C 1017.5 hPa NW 9.7 km/h 25.7 km/h 70% 0 mm
04:19 -7.3 °C -11.9 °C 1017.8 hPa NNW 9.7 km/h 17.7 km/h 70% 0 mm
04:24 -7.4 °C -11.9 °C 1017.5 hPa NNW 9.7 km/h 19.3 km/h 70% 0 mm
04:29 -7.4 °C -12 °C 1017.8 hPa NW 8 km/h 24.1 km/h 70% 0 mm
04:34 -7.4 °C -11.8 °C 1017.8 hPa NNW 4.8 km/h 24.1 km/h 71% 0 mm
04:39 -7.5 °C -11.8 °C 1017.8 hPa NW 6.4 km/h 14.5 km/h 71% 0 mm
04:44 -7.6 °C -11.9 °C 1018.2 hPa NW 9.7 km/h 19.3 km/h 71% 0 mm
04:49 -7.6 °C -11.9 °C 1018.2 hPa NW 9.7 km/h 19.3 km/h 71% 0 mm
04:54 -7.6 °C -12.1 °C 1018.2 hPa NW 9.7 km/h 24.1 km/h 70% 0 mm
04:59 -7.7 °C -12 °C 1018.5 hPa NW 8 km/h 24.1 km/h 71% 0 mm
05:04 -7.7 °C -12.2 °C 1018.5 hPa NW 11.3 km/h 24.1 km/h 70% 0 mm
05:09 -7.8 °C -12.1 °C 1018.5 hPa NW 9.7 km/h 24.1 km/h 71% 0 mm
05:14 -7.8 °C -12.2 °C 1018.8 hPa NW 9.7 km/h 16.1 km/h 71% 0 mm
05:19 -7.9 °C -12.2 °C 1018.8 hPa NW 8 km/h 17.7 km/h 71% 0 mm
05:24 -7.9 °C -12.3 °C 1019.2 hPa NW 11.3 km/h 25.7 km/h 71% 0 mm
05:29 -8 °C -12.3 °C 1019.2 hPa NW 14.5 km/h 27.4 km/h 71% 0 mm
05:34 -8.1 °C -12.4 °C 1019.5 hPa NNW 11.3 km/h 29 km/h 71% 0 mm
05:39 -8.2 °C -12.6 °C 1019.5 hPa NW 12.9 km/h 29 km/h 71% 0 mm
05:44 -8.3 °C -12.7 °C 1019.9 hPa NNW 14.5 km/h 29 km/h 71% 0 mm
05:49 -8.4 °C -12.6 °C 1019.9 hPa NNW 12.9 km/h 29 km/h 72% 0 mm
05:54 -8.6 °C -12.7 °C 1020.2 hPa NNW 11.3 km/h 24.1 km/h 72% 0 mm
05:59 -8.6 °C -12.9 °C 1020.2 hPa NW 19.3 km/h 33.8 km/h 71% 0 mm
06:04 -8.6 °C -12.9 °C 1020.2 hPa NNW 14.5 km/h 35.4 km/h 71% 0 mm
06:09 -8.7 °C -13.1 °C 1020.5 hPa NNW 9.7 km/h 35.4 km/h 71% 0 mm
06:14 -8.8 °C -13.1 °C 1020.5 hPa NNW 9.7 km/h 24.1 km/h 71% 0 mm
06:19 -8.9 °C -13.2 °C 1020.9 hPa NNW 11.3 km/h 20.9 km/h 71% 0 mm
06:24 -8.9 °C -13.2 °C 1020.9 hPa NW 9.7 km/h 22.5 km/h 71% 0 mm
06:29 -9.1 °C -13.3 °C 1021.2 hPa NNW 6.4 km/h 22.5 km/h 71% 0 mm
06:34 -9.2 °C -13.4 °C 1021.2 hPa NW 8 km/h 20.9 km/h 71% 0 mm
06:39 -9.2 °C -13.3 °C 1021.6 hPa NW 3.2 km/h 17.7 km/h 72% 0 mm
06:44 -9.3 °C -13.4 °C 1021.6 hPa NNW 1.6 km/h 14.5 km/h 72% 0 mm
06:49 -9.4 °C -13.6 °C 1021.6 hPa NNW 3.2 km/h 20.9 km/h 72% 0 mm
06:54 -9.4 °C -13.7 °C 1021.9 hPa NNW 9.7 km/h 20.9 km/h 71% 0 mm
06:59 -9.4 °C -13.7 °C 1021.9 hPa NW 4.8 km/h 20.9 km/h 71% 0 mm
07:04 -9.5 °C -13.8 °C 1022.2 hPa NW 9.7 km/h 19.3 km/h 71% 0 mm
07:09 -9.6 °C -13.8 °C 1022.2 hPa NW 11.3 km/h 19.3 km/h 71% 0 mm
07:14 -9.6 °C -13.8 °C 1022.2 hPa NW 9.7 km/h 19.3 km/h 71% 0 mm
07:19 -9.6 °C -14 °C 1022.2 hPa NW 4.8 km/h 19.3 km/h 70% 0 mm
07:24 -9.6 °C -13.8 °C 1022.2 hPa NW 9.7 km/h 22.5 km/h 71% 0 mm
07:29 -9.6 °C -14 °C 1022.6 hPa NNW 3.2 km/h 22.5 km/h 70% 0 mm
07:34 -9.6 °C -13.9 °C 1022.6 hPa NW 6.4 km/h 20.9 km/h 71% 0 mm
07:39 -9.5 °C -13.9 °C 1022.6 hPa WNW 6.4 km/h 20.9 km/h 70% 0 mm
07:44 -9.4 °C -13.9 °C 1022.9 hPa NW 6.4 km/h 16.1 km/h 70% 0 mm
07:49 -9.4 °C -14 °C 1022.9 hPa NW 11.3 km/h 16.1 km/h 69% 0 mm
07:54 -9.3 °C -13.9 °C 1023.2 hPa North 3.2 km/h 16.1 km/h 69% 0 mm
07:59 -9.3 °C -14.2 °C 1023.2 hPa NNW 3.2 km/h 12.9 km/h 68% 0 mm
08:04 -9.3 °C -14.2 °C 1023.6 hPa NW 4.8 km/h 12.9 km/h 68% 0 mm
08:09 -9.2 °C -14.1 °C 1023.6 hPa NNW 8 km/h 17.7 km/h 68% 0 mm
08:14 -9.1 °C -13.9 °C 1023.6 hPa NW 4.8 km/h 17.7 km/h 68% 0 mm
08:19 -8.9 °C -13.9 °C 1023.9 hPa NW 4.8 km/h 11.3 km/h 67% 0 mm
08:24 -8.6 °C -13.6 °C 1023.9 hPa NW 3.2 km/h 9.7 km/h 67% 0 mm
08:29 -8.4 °C -13.8 °C 1023.9 hPa NNW 4.8 km/h 20.9 km/h 65% 0 mm
08:34 -8.1 °C -13.7 °C 1023.9 hPa NW 4.8 km/h 20.9 km/h 64% 0 mm
08:39 -7.9 °C -13.8 °C 1023.9 hPa NNW 8 km/h 16.1 km/h 63% 0 mm
08:44 -7.8 °C -13.6 °C 1023.9 hPa NW 6.4 km/h 16.1 km/h 63% 0 mm
08:49 -7.6 °C -13.4 °C 1023.9 hPa NNW 3.2 km/h 14.5 km/h 63% 0 mm
08:54 -7.6 °C -14 °C 1023.9 hPa NW 11.3 km/h 19.3 km/h 60% 0 mm
08:59 -7.6 °C -13.8 °C 1023.6 hPa NW 11.3 km/h 20.9 km/h 61% 0 mm
09:04 -7.5 °C -13.7 °C 1023.6 hPa NW 11.3 km/h 20.9 km/h 61% 0 mm
09:09 -7.5 °C -13.9 °C 1023.9 hPa NW 8 km/h 22.5 km/h 60% 0 mm
09:14 -7.3 °C -14.2 °C 1023.6 hPa NW 12.9 km/h 30.6 km/h 58% 0 mm
09:19 -7.4 °C -14.3 °C 1023.6 hPa WNW 11.3 km/h 30.6 km/h 58% 0 mm
09:24 -7.4 °C -14.5 °C 1023.6 hPa WNW 11.3 km/h 19.3 km/h 57% 0 mm
09:29 -7.3 °C -14.4 °C 1023.9 hPa NW 8 km/h 20.9 km/h 57% 0 mm
09:34 -7 °C -13.9 °C 1023.9 hPa NNW 3.2 km/h 20.9 km/h 58% 0 mm
09:39 -6.9 °C -14.1 °C 1023.9 hPa WNW 4.8 km/h 17.7 km/h 57% 0 mm
09:44 -6.9 °C -14.4 °C 1023.9 hPa WNW 9.7 km/h 17.7 km/h 55% 0 mm
09:49 -6.7 °C -14.1 °C 1023.9 hPa NW 1.6 km/h 17.7 km/h 56% 0 mm
09:54 -6.5 °C -13.8 °C 1023.9 hPa NNW 4.8 km/h 11.3 km/h 56% 0 mm
09:59 -6.6 °C -14.6 °C 1023.9 hPa NW 8 km/h 11.3 km/h 53% 0 mm
10:04 -6.5 °C -14.3 °C 1023.9 hPa NNW 6.4 km/h 12.9 km/h 54% 0 mm
10:09 -6.3 °C -14.3 °C 1023.9 hPa NW 4.8 km/h 12.9 km/h 53% 0 mm
10:14 -6.4 °C -14.7 °C 1024.3 hPa NW 8 km/h 16.1 km/h 52% 0 mm
10:19 -6.4 °C -14.4 °C 1024.3 hPa NW 4.8 km/h 16.1 km/h 53% 0 mm
10:24 -6.3 °C -14.1 °C 1024.3 hPa NNW 4.8 km/h 14.5 km/h 54% 0 mm
10:29 -5.9 °C -14 °C 1024.3 hPa NW 6.4 km/h 14.5 km/h 53% 0 mm
10:34 -5.8 °C -13.9 °C 1024.3 hPa NW 6.4 km/h 14.5 km/h 53% 0 mm
10:39 -5.8 °C -13.8 °C 1024.3 hPa NW 6.4 km/h 12.9 km/h 53% 0 mm
10:44 -5.6 °C -13.4 °C 1024.3 hPa NNW 6.4 km/h 17.7 km/h 54% 0 mm
10:49 -5.4 °C -13.7 °C 1024.6 hPa NNW 6.4 km/h 24.1 km/h 52% 0 mm
10:54 -5.4 °C -13.8 °C 1024.6 hPa NW 4.8 km/h 24.1 km/h 52% 0 mm
10:59 -5.6 °C -14.4 °C 1024.3 hPa NW 4.8 km/h 16.1 km/h 50% 0 mm
11:04 -5.5 °C -13.6 °C 1024.3 hPa NNW 4.8 km/h 14.5 km/h 53% 0 mm
11:09 -5.5 °C -13.8 °C 1024.6 hPa NW 8 km/h 16.1 km/h 52% 0 mm
11:14 -5.6 °C -13.9 °C 1024.3 hPa West 4.8 km/h 16.1 km/h 52% 0 mm
11:19 -5.6 °C -14.2 °C 1024.3 hPa NNW 1.6 km/h 16.1 km/h 51% 0 mm
11:24 -5.6 °C -14.6 °C 1024.3 hPa West 6.4 km/h 16.1 km/h 49% 0 mm
11:29 -5.5 °C -14.3 °C 1024.3 hPa WNW 6.4 km/h 14.5 km/h 50% 0 mm
11:34 -5.2 °C -13.5 °C 1023.9 hPa NW 1.6 km/h 11.3 km/h 52% 0 mm
11:39 -4.8 °C -13.9 °C 1023.9 hPa NW 4.8 km/h 12.9 km/h 49% 0 mm
11:44 -4.6 °C -13.7 °C 1023.9 hPa North 1.6 km/h 12.9 km/h 49% 0 mm
11:49 -4.5 °C -13.9 °C 1023.9 hPa WNW 6.4 km/h 12.9 km/h 48% 0 mm
11:54 -4.6 °C -14.2 °C 1023.9 hPa Calm   12.9 km/h 47% 0 mm
11:59 -4.3 °C -14.2 °C 1024.3 hPa NW 6.4 km/h 11.3 km/h 46% 0 mm
12:04 -4.6 °C -13.9 °C 1023.9 hPa NW 1.6 km/h 12.9 km/h 48% 0 mm
12:09 -4.8 °C -14.4 °C 1024.3 hPa WNW 4.8 km/h 12.9 km/h 47% 0 mm
12:14 -4.3 °C -13.4 °C 1024.3 hPa North 4.8 km/h 12.9 km/h 49% 0 mm
12:19 -4.1 °C -14 °C 1023.9 hPa NNW 1.6 km/h 11.3 km/h 46% 0 mm
12:24 -4.1 °C -14.2 °C 1023.9 hPa WNW 3.2 km/h 11.3 km/h 45% 0 mm
12:29 -4.5 °C -14.1 °C 1023.9 hPa WNW 8 km/h 14.5 km/h 47% 0 mm
12:34 -4.6 °C -13.4 °C 1023.9 hPa NW 11.3 km/h 19.3 km/h 50% 0 mm
12:44 -4.8 °C -14.6 °C 1023.6 hPa West 1.6 km/h 14.5 km/h 46% 0 mm
12:49 -4.3 °C -13.4 °C 1023.6 hPa Calm   12.9 km/h 49% 0 mm
12:54 -3.9 °C -14.1 °C 1023.6 hPa WSW 1.6 km/h 6.4 km/h 45% 0 mm
12:59 -4.2 °C -14.6 °C 1023.9 hPa WNW 8 km/h 14.5 km/h 44% 0 mm
13:04 -4.2 °C -14.4 °C 1023.6 hPa WNW 4.8 km/h 14.5 km/h 45% 0 mm
13:09 -4.3 °C -15.6 °C 1023.6 hPa NW 4.8 km/h 12.9 km/h 41% 0 mm
13:14 -4 °C -14.7 °C 1023.6 hPa WNW 3.2 km/h 11.3 km/h 43% 0 mm
13:19 -3.8 °C -15.4 °C 1023.6 hPa WNW 4.8 km/h 9.7 km/h 40% 0 mm
13:24 -3.9 °C -15.3 °C 1023.6 hPa WNW 3.2 km/h 8 km/h 41% 0 mm
13:29 -3.6 °C -14.6 °C 1023.2 hPa Calm   8 km/h 42% 0 mm
13:34 -3.3 °C -14.4 °C 1023.2 hPa NW 3.2 km/h 9.7 km/h 42% 0 mm
13:39 -3.1 °C -13.9 °C 1023.6 hPa SW 3.2 km/h 9.7 km/h 43% 0 mm
13:44 -3 °C -13.8 °C 1023.2 hPa Calm   6.4 km/h 43% 0 mm
13:49 -2.8 °C -13.9 °C 1023.6 hPa West 3.2 km/h 6.4 km/h 42% 0 mm
13:54 -2.6 °C -14.4 °C 1023.6 hPa NNW 4.8 km/h 9.7 km/h 40% 0 mm
13:59 -2.5 °C -13.9 °C 1023.6 hPa WNW 4.8 km/h 9.7 km/h 41% 0 mm
14:04 -2.4 °C -13.6 °C 1023.2 hPa NW 3.2 km/h 12.9 km/h 42% 0 mm
14:09 -2.7 °C -14.4 °C 1023.2 hPa WNW 1.6 km/h 12.9 km/h 40% 0 mm
14:14 -2.8 °C -14.5 °C 1023.2 hPa WNW 1.6 km/h 11.3 km/h 40% 0 mm
14:19 -2.7 °C -13.8 °C 1023.2 hPa WNW 1.6 km/h 4.8 km/h 42% 0 mm
14:24 -2.8 °C -13.9 °C 1022.9 hPa SSW 1.6 km/h 8 km/h 42% 0 mm
14:29 -2.5 °C -14.3 °C 1022.6 hPa East 1.6 km/h 8 km/h 40% 0 mm
14:34 -2.2 °C -13.4 °C 1022.6 hPa Calm   4.8 km/h 42% 0 mm
14:39 -2 °C -12.6 °C 1022.6 hPa Calm   4.8 km/h 44% 0 mm
14:44 -1.7 °C -12.7 °C 1022.6 hPa Calm   6.4 km/h 43% 0 mm
14:49 -1.7 °C -13.5 °C 1022.6 hPa Calm   6.4 km/h 40% 0 mm
14:54 -1.6 °C -12.8 °C 1022.2 hPa SSW 4.8 km/h 11.3 km/h 42% 0 mm
14:59 -1.8 °C -12.5 °C 1022.2 hPa South 1.6 km/h 11.3 km/h 44% 0 mm
15:04 -1.7 °C -12.9 °C 1022.2 hPa Calm   9.7 km/h 42% 0 mm
15:09 -1.4 °C -13.3 °C 1022.2 hPa WSW 4.8 km/h 8 km/h 40% 0 mm
15:14 -1.7 °C -13.2 °C 1022.2 hPa Calm   9.7 km/h 41% 0 mm
15:19 -1.5 °C -12.4 °C 1022.2 hPa WSW 1.6 km/h 9.7 km/h 43% 0 mm
15:24 -1.4 °C -12.7 °C 1021.9 hPa Calm   6.4 km/h 42% 0 mm
15:29 -1.1 °C -12.7 °C 1022.2 hPa WSW 3.2 km/h 8 km/h 41% 0 mm
15:34 -1.3 °C -12.8 °C 1022.2 hPa WSW 1.6 km/h 8 km/h 41% 0 mm
15:39 -1.3 °C -12.6 °C 1021.9 hPa WSW 1.6 km/h 6.4 km/h 42% 0 mm
15:44 -1.3 °C -12.8 °C 1022.2 hPa WSW 4.8 km/h 6.4 km/h 41% 0 mm
15:49 -1.4 °C -13 °C 1021.9 hPa WSW 3.2 km/h 8 km/h 41% 0 mm
15:54 -1.6 °C -12.5 °C 1021.9 hPa SW 6.4 km/h 9.7 km/h 43% 0 mm
15:59 -1.8 °C -13 °C 1021.9 hPa SW 6.4 km/h 11.3 km/h 42% 0 mm
16:04 -1.8 °C -12.5 °C 1021.9 hPa SSW 4.8 km/h 14.5 km/h 44% 0 mm
16:09 -2 °C -12.3 °C 1021.9 hPa SW 4.8 km/h 16.1 km/h 45% 0 mm
16:14 -2.1 °C -12.7 °C 1021.6 hPa SSW 6.4 km/h 16.1 km/h 44% 0 mm
16:19 -2.1 °C -13 °C 1021.6 hPa SSW 6.4 km/h 12.9 km/h 43% 0 mm
16:24 -2.1 °C -12.7 °C 1021.6 hPa SW 6.4 km/h 12.9 km/h 44% 0 mm
16:29 -2.2 °C -13.1 °C 1021.6 hPa SSW 8 km/h 12.9 km/h 43% 0 mm
16:34 -2.3 °C -13.5 °C 1021.6 hPa SSW 6.4 km/h 12.9 km/h 42% 0 mm
16:39 -2.3 °C -12.7 °C 1021.6 hPa SSW 3.2 km/h 12.9 km/h 45% 0 mm
16:44 -2.3 °C -12.7 °C 1021.6 hPa SSW 6.4 km/h 12.9 km/h 45% 0 mm
16:49 -2.4 °C -13.1 °C 1021.6 hPa SSW 6.4 km/h 11.3 km/h 44% 0 mm
16:54 -2.6 °C -13.4 °C 1021.2 hPa SSW 6.4 km/h 14.5 km/h 43% 0 mm
16:59 -2.7 °C -12.9 °C 1021.6 hPa SSW 4.8 km/h 14.5 km/h 45% 0 mm
17:04 -2.8 °C -13.1 °C 1021.2 hPa SSW 4.8 km/h 11.3 km/h 45% 0 mm
17:09 -3 °C -13 °C 1021.6 hPa SW 3.2 km/h 9.7 km/h 46% 0 mm
17:14 -3.2 °C -12.9 °C 1021.6 hPa SW 3.2 km/h 9.7 km/h 47% 0 mm
17:19 -3.3 °C -13.1 °C 1021.6 hPa SW 3.2 km/h 9.7 km/h 47% 0 mm
17:24 -3.6 °C -12.7 °C 1021.6 hPa Calm   8 km/h 49% 0 mm
17:29 -3.8 °C -12.7 °C 1021.6 hPa Calm   6.4 km/h 50% 0 mm
17:34 -3.9 °C -12.8 °C 1021.6 hPa Calm   3.2 km/h 50% 0 mm
17:39 -4.2 °C -12.6 °C 1021.2 hPa Calm   3.2 km/h 52% 0 mm
17:49 -4.7 °C -12.8 °C 1021.6 hPa SW 1.6 km/h 6.4 km/h 53% 0 mm
17:54 -4.8 °C -12.9 °C 1021.2 hPa SW 3.2 km/h 6.4 km/h 53% 0 mm
17:59 -4.9 °C -13 °C 1021.2 hPa SW 1.6 km/h 6.4 km/h 53% 0 mm
18:04 -4.9 °C -13 °C 1021.2 hPa SSW 1.6 km/h 8 km/h 53% 0 mm
18:09 -4.9 °C -13.3 °C 1021.2 hPa SSW 1.6 km/h 8 km/h 52% 0 mm
18:14 -4.9 °C -13.1 °C 1021.2 hPa SSW 3.2 km/h 8 km/h 53% 0 mm
18:19 -5 °C -13.1 °C 1020.9 hPa SSW 1.6 km/h 8 km/h 53% 0 mm
18:24 -5.1 °C -13.2 °C 1020.9 hPa SSW 3.2 km/h 9.7 km/h 53% 0 mm
18:29 -5.2 °C -13.3 °C 1020.9 hPa SSW 3.2 km/h 9.7 km/h 53% 0 mm
18:34 -5.2 °C -13.1 °C 1020.5 hPa SSW 3.2 km/h 9.7 km/h 54% 0 mm
18:39 -5.3 °C -13.1 °C 1020.9 hPa SSW 3.2 km/h 9.7 km/h 54% 0 mm
18:44 -5.2 °C -13.5 °C 1020.5 hPa SSW 8 km/h 12.9 km/h 52% 0 mm
18:49 -5.1 °C -13.4 °C 1020.5 hPa SSW 4.8 km/h 12.9 km/h 52% 0 mm
18:54 -5.1 °C -13.4 °C 1020.5 hPa SSW 3.2 km/h 12.9 km/h 52% 0 mm
18:59 -5 °C -13.3 °C 1020.5 hPa SSW 3.2 km/h 14.5 km/h 52% 0 mm
19:04 -5 °C -13.6 °C 1020.5 hPa SSW 6.4 km/h 14.5 km/h 51% 0 mm
19:09 -5 °C -13.6 °C 1020.2 hPa SSW 3.2 km/h 11.3 km/h 51% 0 mm
19:14 -4.9 °C -13.6 °C 1020.2 hPa SSW 8 km/h 14.5 km/h 51% 0 mm
19:19 -4.8 °C -13.4 °C 1020.2 hPa SSW 8 km/h 16.1 km/h 51% 0 mm
19:24 -4.8 °C -13.2 °C 1020.2 hPa SSW 6.4 km/h 16.1 km/h 52% 0 mm
19:29 -4.8 °C -13.4 °C 1019.9 hPa SSW 8 km/h 16.1 km/h 51% 0 mm
19:34 -4.7 °C -13.3 °C 1019.9 hPa SSW 9.7 km/h 16.1 km/h 51% 0 mm
19:39 -4.6 °C -12.9 °C 1019.9 hPa SSW 8 km/h 19.3 km/h 52% 0 mm
19:44 -4.6 °C -12.9 °C 1019.5 hPa SSW 8 km/h 19.3 km/h 52% 0 mm
19:49 -4.5 °C -12.9 °C 1019.5 hPa SSW 11.3 km/h 19.3 km/h 52% 0 mm
19:54 -4.4 °C -12.8 °C 1019.5 hPa SSW 9.7 km/h 24.1 km/h 52% 0 mm
19:59 -4.3 °C -12.7 °C 1019.5 hPa SSW 9.7 km/h 24.1 km/h 52% 0 mm
20:04 -4.2 °C -12.6 °C 1019.2 hPa SSW 9.7 km/h 22.5 km/h 52% 0 mm
20:09 -4.2 °C -12.3 °C 1019.2 hPa SSW 6.4 km/h 17.7 km/h 53% 0 mm
20:14 -4.2 °C -12.6 °C 1019.2 hPa SSW 9.7 km/h 22.5 km/h 52% 0 mm
20:19 -4.1 °C -12.5 °C 1019.2 hPa SSW 11.3 km/h 22.5 km/h 52% 0 mm
20:24 -4.2 °C -12.3 °C 1019.2 hPa SSW 11.3 km/h 22.5 km/h 53% 0 mm
20:29 -4.2 °C -12.3 °C 1019.2 hPa SSW 9.7 km/h 22.5 km/h 53% 0 mm
20:34 -4.3 °C -12.4 °C 1019.2 hPa SW 11.3 km/h 19.3 km/h 53% 0 mm
20:39 -4.3 °C -12.4 °C 1018.8 hPa SSW 9.7 km/h 27.4 km/h 53% 0 mm
20:44 -4.2 °C -12.4 °C 1018.8 hPa SSW 11.3 km/h 27.4 km/h 53% 0 mm
20:49 -4.1 °C -12.3 °C 1018.8 hPa SSW 11.3 km/h 24.1 km/h 53% 0 mm
20:54 -4.1 °C -12 °C 1018.8 hPa SSW 11.3 km/h 24.1 km/h 54% 0 mm
20:59 -4.1 °C -12 °C 1018.5 hPa SSW 12.9 km/h 22.5 km/h 54% 0 mm
21:04 -4.1 °C -12 °C 1018.5 hPa SSW 11.3 km/h 27.4 km/h 54% 0 mm
21:09 -4 °C -11.9 °C 1018.5 hPa SSW 11.3 km/h 27.4 km/h 54% 0 mm
21:14 -3.9 °C -11.9 °C 1018.5 hPa SSW 11.3 km/h 25.7 km/h 54% 0 mm
21:19 -3.8 °C -11.7 °C 1018.2 hPa SSW 17.7 km/h 29 km/h 54% 0 mm
21:24 -3.8 °C -11.8 °C 1018.2 hPa SSW 14.5 km/h 29 km/h 54% 0 mm
21:29 -3.8 °C -11.7 °C 1017.8 hPa SSW 16.1 km/h 27.4 km/h 54% 0 mm
21:35 -3.8 °C -11.7 °C 1017.8 hPa SW 14.5 km/h 25.7 km/h 54% 0 mm
21:44 -3.8 °C -11.7 °C 1017.8 hPa SSW 14.5 km/h 27.4 km/h 54% 0 mm
21:49 -3.8 °C -11.7 °C 1017.8 hPa SSW 14.5 km/h 29 km/h 54% 0 mm
21:54 -3.8 °C -11.7 °C 1017.5 hPa SSW 12.9 km/h 29 km/h 54% 0 mm
21:59 -3.8 °C -11.8 °C 1017.5 hPa SSW 12.9 km/h 24.1 km/h 54% 0 mm
22:04 -3.8 °C -11.8 °C 1017.2 hPa SSW 12.9 km/h 33.8 km/h 54% 0 mm
22:09 -3.8 °C -11.9 °C 1016.8 hPa SSW 16.1 km/h 33.8 km/h 53% 0 mm
22:14 -3.7 °C -11.9 °C 1016.8 hPa SSW 11.3 km/h 24.1 km/h 53% 0 mm
22:19 -3.6 °C -12.1 °C 1016.5 hPa SSW 16.1 km/h 27.4 km/h 52% 0 mm
22:24 -3.5 °C -12.2 °C 1016.5 hPa SSW 14.5 km/h 29 km/h 51% 0 mm
22:29 -3.4 °C -12.1 °C 1016.5 hPa SSW 16.1 km/h 29 km/h 51% 0 mm
22:34 -3.4 °C -12.4 °C 1016.1 hPa SW 17.7 km/h 33.8 km/h 50% 0 mm
22:39 -3.4 °C -12.4 °C 1016.1 hPa SSW 14.5 km/h 33.8 km/h 50% 0 mm
22:44 -3.3 °C -12.6 °C 1015.8 hPa SSW 16.1 km/h 33.8 km/h 49% 0 mm
22:49 -3.4 °C -12.8 °C 1015.8 hPa SSW 17.7 km/h 33.8 km/h 48% 0 mm
22:54 -3.4 °C -12.8 °C 1015.8 hPa SW 17.7 km/h 38.6 km/h 48% 0 mm
22:59 -3.3 °C -13 °C 1015.8 hPa SSW 16.1 km/h 38.6 km/h 47% 0 mm
23:04 -3.3 °C -13.3 °C 1015.8 hPa SSW 17.7 km/h 32.2 km/h 46% 0 mm
23:09 -3.2 °C -13.2 °C 1015.5 hPa SSW 20.9 km/h 32.2 km/h 46% 0 mm
23:14 -3.2 °C -13.2 °C 1015.5 hPa SSW 19.3 km/h 33.8 km/h 46% 0 mm
23:19 -3.2 °C -13.2 °C 1015.5 hPa SSW 16.1 km/h 37 km/h 46% 0 mm
23:24 -3.1 °C -13.3 °C 1015.5 hPa SSW 20.9 km/h 41.8 km/h 45% 0 mm
23:29 -3.1 °C -13.1 °C 1015.5 hPa SSW 17.7 km/h 41.8 km/h 46% 0 mm
23:34 -3.1 °C -13.4 °C 1015.5 hPa SSW 19.3 km/h 35.4 km/h 45% 0 mm
23:39 -3.1 °C -13.1 °C 1015.1 hPa SSW 17.7 km/h 33.8 km/h 46% 0 mm
23:44 -3.1 °C -13.1 °C 1015.1 hPa SSW 16.1 km/h 35.4 km/h 46% 0 mm
23:49 -3 °C -13.6 °C 1015.1 hPa SSW 19.3 km/h 40.2 km/h 44% 0 mm
23:54 -3.1 °C -13.3 °C 1015.1 hPa SSW 19.3 km/h 40.2 km/h 45% 0 mm
23:59 -2.9 °C -13.2 °C 1015.1 hPa SSW 17.7 km/h 37 km/h 45% 0 mm
Westford Weather
Compliments of Weather Underground

 
 
Current Radar Loop:

Copyright © WestfordWeather.net 2007-2014. All rights reserved.